Flag Weather past 2 weeks in Tempe, Arizona, U.S.A.

Now
82 °F

Sunny.


Feels Like: 80 °F
Forecast: 50 / 77 °F
Wind: No wind

Location: Phoenix Sky Harbor International Airport

Current Time: Nov 28, 2014 at 5:37:45 PM

Latest Report: Nov 28, 2014 at 4:51 PM


Visibility: 10 mi

Pressure: 29.85 "Hg

Humidity: 12%

Dew point: 25 °F

Location of TempeLocation

Historic Weather in Tempe — Graph

°F

Tempe temperature yesterday

Maximum temperature yesterday: 86 °F (at 1:51 PM)
Minimum temperature yesterday: 47 °F (at 6:51 AM)
Average temperature yesterday: 65 °F

Past Weeks' High & Low Weather Summary

 TemperatureHumidityPressure
High86 °F (Nov 27, 1:51 PM)78% (Nov 15, 6:51 AM)30.43 "Hg (Nov 15, 6:51 AM)
Low43 °F (Nov 24, 6:51 AM)6% (Nov 16, 3:51 PM)29.81 "Hg (Nov 16, 12:51 AM)
Average62 °F29%30.05 "Hg
* Reported Nov 13 3:51 PM — Nov 28 3:51 PM, Tempe, Weather by CustomWeather, © 2014

Note: Actual official high and low records may vary slightly from our data, if they occured in-between our weather recording intervals... More about our weather records

Advertising

Tempe weather history for previous 24 hours

 ConditionsComfort  
Time TempWeatherWind HumidityBarometerVisibility
3:51 PM
Nov 28
83 °FSunny.3 mph10%29.86 "Hg10 mi
2:51 PM83 °FSunny.6 mph11%29.88 "Hg10 mi
1:51 PM80 °FSunny.3 mph13%29.90 "Hg10 mi
12:51 PM77 °FSunny.No wind14%29.94 "Hg10 mi
11:51 AM76 °FSunny.5 mph16%29.97 "Hg10 mi
10:51 AM73 °FSunny.7 mph18%30.01 "Hg10 mi
9:51 AM70 °FSunny.8 mph19%30.02 "Hg10 mi
8:51 AM62 °FSunny.6 mph29%30.02 "Hg10 mi
7:51 AM54 °FPassing clouds.No wind38%30.02 "Hg10 mi
6:51 AM55 °FPassing clouds.3 mph34%30.01 "Hg10 mi
5:51 AM56 °FClear.5 mph32%30.00 "Hg10 mi
4:51 AM55 °FClear.6 mph37%29.99 "Hg10 mi
3:51 AM55 °FClear.5 mph37%30.01 "Hg10 mi
2:51 AM56 °FClear.6 mph36%30.01 "Hg10 mi
1:51 AM57 °FClear.No wind36%30.01 "Hg10 mi
12:51 AM58 °FClear.5 mph32%30.02 "Hg10 mi
11:51 PM
Nov 27
62 °FClear.3 mph25%30.02 "Hg10 mi
10:51 PM63 °FClear.3 mph28%30.02 "Hg10 mi
9:51 PM64 °FClear.6 mph28%30.03 "Hg10 mi
8:51 PM65 °FClear.No wind27%30.03 "Hg10 mi
7:51 PM68 °FPassing clouds.No wind23%30.03 "Hg10 mi
6:51 PM75 °FPassing clouds.No wind15%30.02 "Hg10 mi
5:51 PM76 °FPassing clouds.No wind16%30.02 "Hg10 mi
Weather by CustomWeather, © 2014

See weather overviewHow to use our weather pages